Regional Weather Roundup
Issued by NWS

Home | Current Version | Previous Version | Text Only | Print | Product List | Glossary Off
Versions: 1 2 3 4 5 6 7 8 9 10 11 12 13 14 15 16 17 18 19 20 21 22 23 24 25 26 27 28 29 30 31 32 33 34 35 36 37 38 39 40 41 42 43 44 45 46 47 48 49 50

000
ASUS45 KBOI 040610
RWRID

IDAHO REGIONAL WEATHER ROUNDUP
NATIONAL WEATHER SERVICE BOISE ID
1200 AM MDT WED MAY 04 2016

NOTE: "FAIR" INDICATES FEW OR NO CLOUDS BELOW 12000 FEET
WITH NO SIGNIFICANT WEATHER AND/OR OBSTRUCTIONS TO VISIBILITY

IDZ012-014-040700-
SOUTHWEST IDAHO


CITY           SKY/WX    TMP DP  RH WIND       PRES   REMARKS
BOISE          PTCLDY    66  33  29 SE9       29.99F
CALDWELL       PTCLDY    59  38  45 E9        29.98F
MOUNTAIN HOME  PTCLDY    59  36  43 E8        30.01S
$$

IDZ016-017-040700-
SOUTHCENTRAL IDAHO


CITY           SKY/WX    TMP DP  RH WIND       PRES   REMARKS
BURLEY         CLEAR     51  31  46 SE6       30.12S
JEROME         PTCLDY    53  30  41 E10       30.10S
TWIN FALLS     PTCLDY    55  28  35 S15       30.09S
$$

IDZ019>023-040700-
SOUTHEAST IDAHO


CITY           SKY/WX    TMP DP  RH WIND       PRES   REMARKS
IDAHO FALLS    CLEAR     48  37  65 SE3       30.18S
POCATELLO      CLEAR     49  40  71 E8        30.16S
REXBURG        CLEAR     50  30  46 CALM      30.18R
$$

IDZ006-010-011-018-031-032-040700-
CENTRAL IDAHO MOUNTAINS


CITY           SKY/WX    TMP DP  RH WIND       PRES   REMARKS
MCCALL         CLEAR     47  37  68 CALM      30.12F
HAILEY         CLEAR     48  34  57 NW7       30.21S
STANLEY          N/A     43  26  51 S7        30.24S
SALMON         CLEAR     54  30  40 CALM      30.08R
CHALLIS        CLEAR     51  24  34 S5        30.16R
$$

IDZ002-004-006-007-026-040700-
NORTHERN IDAHO


CITY           SKY/WX    TMP DP  RH WIND       PRES   REMARKS
LEWISTON       PTCLDY    66  43  43 SW5       29.92R
LOWELL           N/A     55  50  83 N3        30.00R
COEUR D`ALENE  PTCLDY    57  46  67 CALM      29.94S
MULLAN PASS    CLEAR     53  31  42 NW6       30.14S
$$



USA.gov is the U.S. government's official web portal to all federal, state and local government web resources and services.